Time,TemperatureF,DewpointF,PressureIn,WindDirection,WindDirectionDegrees,WindSpeedMPH,WindSpeedGustMPH,Humidity,HourlyPrecipIn,Conditions,Clouds,dailyrainin,SoftwareType,DateUTC
2013-05-20 00:01:00,65.1,55.1,30.27,SW,225,0.0,0.0,70,0.00,,,0.00,WUHU216HW,2013-05-20 04:01:00,
2013-05-20 00:02:00,64.9,54.9,30.27,SW,225,0.0,0.0,70,0.00,,,0.00,WUHU216HW,2013-05-20 04:02:00,
2013-05-20 00:07:00,64.7,54.8,30.27,SW,225,0.0,0.0,70,0.00,,,0.00,WUHU216HW,2013-05-20 04:07:00,
2013-05-20 00:12:00,64.5,55.0,30.27,SW,225,0.0,0.0,71,0.00,,,0.00,WUHU216HW,2013-05-20 04:12:00,
2013-05-20 00:17:00,64.4,54.8,30.27,SW,225,0.0,0.0,71,0.00,,,0.00,WUHU216HW,2013-05-20 04:17:00,
2013-05-20 00:22:00,64.2,55.0,30.27,SW,225,0.0,0.0,72,0.00,,,0.00,WUHU216HW,2013-05-20 04:22:00,
2013-05-20 00:27:00,64.0,55.2,30.27,SW,225,0.0,0.0,72,0.00,,,0.00,WUHU216HW,2013-05-20 04:27:00,
2013-05-20 00:32:00,64.0,55.2,30.27,SW,225,0.0,0.0,73,0.00,,,0.00,WUHU216HW,2013-05-20 04:32:00,
2013-05-20 00:37:00,64.0,55.2,30.27,SW,225,0.0,0.0,73,0.00,,,0.00,WUHU216HW,2013-05-20 04:37:00,
2013-05-20 00:42:00,63.8,55.0,30.27,SW,225,0.0,0.0,73,0.00,,,0.00,WUHU216HW,2013-05-20 04:42:00,
2013-05-20 00:47:00,64.0,55.5,30.27,SW,225,0.0,0.0,74,0.00,,,0.00,WUHU216HW,2013-05-20 04:47:00,
2013-05-20 00:52:00,63.6,55.2,30.27,SW,225,0.0,0.0,74,0.00,,,0.00,WUHU216HW,2013-05-20 04:52:00,
2013-05-20 00:57:00,63.6,55.5,30.27,SW,225,0.0,0.0,75,0.00,,,0.00,WUHU216HW,2013-05-20 04:57:00,
2013-05-20 01:02:00,63.6,55.5,30.27,SW,225,0.0,0.0,75,0.00,,,0.00,WUHU216HW,2013-05-20 05:02:00,
2013-05-20 01:07:00,63.8,55.7,30.27,SW,225,0.0,0.0,75,0.00,,,0.00,WUHU216HW,2013-05-20 05:07:00,
2013-05-20 01:12:00,63.8,55.7,30.27,SW,225,0.0,0.0,75,0.00,,,0.00,WUHU216HW,2013-05-20 05:12:00,
2013-05-20 01:17:00,64.0,55.9,30.27,SW,225,0.0,0.0,75,0.00,,,0.00,WUHU216HW,2013-05-20 05:17:00,
2013-05-20 01:22:00,63.8,55.7,30.27,SW,225,0.0,0.0,75,0.00,,,0.00,WUHU216HW,2013-05-20 05:22:00,
2013-05-20 01:27:00,63.6,55.5,30.27,SW,225,0.0,0.0,75,0.00,,,0.00,WUHU216HW,2013-05-20 05:27:00,
2013-05-20 01:32:00,63.6,55.9,30.26,SW,225,0.0,0.0,76,0.00,,,0.00,WUHU216HW,2013-05-20 05:32:00,
2013-05-20 01:37:00,63.6,55.9,30.26,SW,225,0.0,0.0,76,0.00,,,0.00,WUHU216HW,2013-05-20 05:37:00,
2013-05-20 01:42:00,63.6,55.9,30.26,SW,225,0.0,0.0,76,0.00,,,0.00,WUHU216HW,2013-05-20 05:42:00,
2013-05-20 01:47:00,63.5,55.7,30.25,SW,225,0.0,0.0,76,0.00,,,0.00,WUHU216HW,2013-05-20 05:47:00,
2013-05-20 01:52:00,63.5,55.7,30.25,SW,225,0.0,0.0,76,0.00,,,0.00,WUHU216HW,2013-05-20 05:52:00,
2013-05-20 01:57:00,63.3,55.5,30.25,SW,225,0.0,0.0,76,0.00,,,0.00,WUHU216HW,2013-05-20 05:57:00,
2013-05-20 02:02:00,63.3,55.5,30.25,SW,225,0.0,0.0,76,0.00,,,0.00,WUHU216HW,2013-05-20 06:02:00,
2013-05-20 02:07:00,63.3,55.5,30.25,SW,225,0.0,0.0,76,0.00,,,0.00,WUHU216HW,2013-05-20 06:07:00,
2013-05-20 02:12:00,63.3,55.9,30.24,SW,225,0.0,0.0,77,0.00,,,0.00,WUHU216HW,2013-05-20 06:12:00,
2013-05-20 02:17:00,63.3,55.9,30.24,SW,225,0.0,0.0,77,0.00,,,0.00,WUHU216HW,2013-05-20 06:17:00,
2013-05-20 02:22:00,63.3,55.9,30.25,SW,225,0.0,0.0,77,0.00,,,0.00,WUHU216HW,2013-05-20 06:22:00,
2013-05-20 02:27:00,63.3,56.3,30.25,SW,225,0.0,0.0,78,0.00,,,0.00,WUHU216HW,2013-05-20 06:27:00,
2013-05-20 02:32:00,63.3,56.3,30.25,SW,225,0.0,0.0,78,0.00,,,0.00,WUHU216HW,2013-05-20 06:32:00,
2013-05-20 02:37:00,63.3,56.3,30.25,SW,225,0.0,0.0,78,0.00,,,0.00,WUHU216HW,2013-05-20 06:37:00,
2013-05-20 02:42:00,63.3,56.6,30.25,SW,225,0.0,0.0,79,0.00,,,0.00,WUHU216HW,2013-05-20 06:42:00,
2013-05-20 02:47:00,63.3,56.6,30.25,SW,225,0.0,0.0,79,0.00,,,0.00,WUHU216HW,2013-05-20 06:47:00,
2013-05-20 02:52:00,63.3,56.6,30.25,SW,225,0.0,0.0,79,0.00,,,0.00,WUHU216HW,2013-05-20 06:52:00,
2013-05-20 02:57:00,63.5,56.8,30.26,SW,225,0.0,0.0,79,0.00,,,0.00,WUHU216HW,2013-05-20 06:57:00,
2013-05-20 03:02:00,63.5,56.8,30.26,SW,225,0.0,0.0,79,0.00,,,0.00,WUHU216HW,2013-05-20 07:02:00,
2013-05-20 03:07:00,63.6,57.0,30.26,SW,225,0.0,0.0,79,0.00,,,0.00,WUHU216HW,2013-05-20 07:07:00,
2013-05-20 03:12:00,63.6,57.0,30.25,SW,225,0.0,0.0,79,0.00,,,0.00,WUHU216HW,2013-05-20 07:12:00,
2013-05-20 03:17:00,63.6,57.0,30.25,SW,225,0.0,0.0,79,0.00,,,0.00,WUHU216HW,2013-05-20 07:17:00,
2013-05-20 03:22:00,63.6,57.0,30.25,SW,225,0.0,0.0,79,0.00,,,0.00,WUHU216HW,2013-05-20 07:22:00,
2013-05-20 03:27:00,63.6,57.3,30.25,SW,225,0.0,0.0,80,0.00,,,0.00,WUHU216HW,2013-05-20 07:27:00,
2013-05-20 03:32:00,63.6,57.3,30.25,SW,225,0.0,0.0,80,0.00,,,0.00,WUHU216HW,2013-05-20 07:32:00,
2013-05-20 03:37:00,63.6,57.3,30.25,SW,225,0.0,0.0,80,0.00,,,0.00,WUHU216HW,2013-05-20 07:37:00,
2013-05-20 03:42:00,63.6,57.3,30.24,SW,225,0.0,0.0,80,0.00,,,0.00,WUHU216HW,2013-05-20 07:42:00,
2013-05-20 03:47:00,63.6,57.3,30.24,SW,225,0.0,0.0,80,0.00,,,0.00,WUHU216HW,2013-05-20 07:47:00,
2013-05-20 03:52:00,63.5,57.2,30.23,SW,225,0.0,0.0,80,0.00,,,0.00,WUHU216HW,2013-05-20 07:52:00,
2013-05-20 03:57:00,63.5,57.5,30.24,SW,225,0.0,0.0,81,0.00,,,0.00,WUHU216HW,2013-05-20 07:57:00,
2013-05-20 04:02:00,63.5,57.5,30.25,SW,225,0.0,0.0,81,0.00,,,0.00,WUHU216HW,2013-05-20 08:02:00,
2013-05-20 04:07:00,63.6,57.7,30.26,SW,225,0.0,0.0,81,0.00,,,0.00,WUHU216HW,2013-05-20 08:07:00,
2013-05-20 04:12:00,63.8,58.2,30.25,SW,225,0.0,0.0,82,0.00,,,0.00,WUHU216HW,2013-05-20 08:12:00,
2013-05-20 04:17:00,64.0,58.0,30.26,SW,225,0.0,0.0,81,0.00,,,0.00,WUHU216HW,2013-05-20 08:17:00,
2013-05-20 04:22:00,64.0,58.4,30.26,SW,225,0.0,0.0,82,0.00,,,0.00,WUHU216HW,2013-05-20 08:22:00,
2013-05-20 04:27:00,64.0,58.0,30.26,SW,225,0.0,0.0,81,0.00,,,0.00,WUHU216HW,2013-05-20 08:27:00,
2013-05-20 04:32:00,64.0,58.0,30.27,SW,225,0.0,0.0,81,0.00,,,0.00,WUHU216HW,2013-05-20 08:32:00,
2013-05-20 04:37:00,64.0,58.0,30.26,SW,225,0.0,0.0,81,0.00,,,0.00,WUHU216HW,2013-05-20 08:37:00,
2013-05-20 04:42:00,64.0,57.9,30.26,SW,225,0.0,0.0,81,0.00,,,0.00,WUHU216HW,2013-05-20 08:42:00,
2013-05-20 04:47:00,63.8,57.9,30.27,SW,225,0.0,0.0,81,0.00,,,0.00,WUHU216HW,2013-05-20 08:47:00,
2013-05-20 04:52:00,63.6,58.0,30.27,SW,225,0.0,0.0,82,0.00,,,0.00,WUHU216HW,2013-05-20 08:52:00,
2013-05-20 04:57:00,63.6,57.7,30.27,SW,225,0.0,0.0,81,0.00,,,0.00,WUHU216HW,2013-05-20 08:57:00,
2013-05-20 05:02:00,63.6,57.7,30.27,SW,225,0.0,0.0,81,0.00,,,0.00,WUHU216HW,2013-05-20 09:02:00,
2013-05-20 05:07:00,63.5,57.5,30.27,SW,225,0.0,0.0,81,0.00,,,0.00,WUHU216HW,2013-05-20 09:07:00,
2013-05-20 05:12:00,63.3,57.3,30.27,SW,225,0.0,0.0,81,0.00,,,0.00,WUHU216HW,2013-05-20 09:12:00,
2013-05-20 05:17:00,63.1,57.5,30.26,SW,225,0.0,0.0,82,0.00,,,0.00,WUHU216HW,2013-05-20 09:17:00,
2013-05-20 05:22:00,63.1,57.5,30.26,SW,225,0.0,0.0,82,0.00,,,0.00,WUHU216HW,2013-05-20 09:22:00,
2013-05-20 05:27:00,62.7,57.1,30.25,SW,225,0.0,0.0,82,0.00,,,0.00,WUHU216HW,2013-05-20 09:27:00,
2013-05-20 05:32:00,62.6,56.9,30.25,SW,225,0.0,0.0,82,0.00,,,0.00,WUHU216HW,2013-05-20 09:32:00,
2013-05-20 05:37:00,62.4,56.8,30.25,SW,225,0.0,0.0,82,0.00,,,0.00,WUHU216HW,2013-05-20 09:37:00,
2013-05-20 05:42:00,62.4,56.8,30.25,SW,225,0.0,0.0,82,0.00,,,0.00,WUHU216HW,2013-05-20 09:42:00,
2013-05-20 05:47:00,62.2,56.6,30.25,SW,225,0.0,0.0,82,0.00,,,0.00,WUHU216HW,2013-05-20 09:47:00,
2013-05-20 05:52:00,62.2,56.6,30.25,SW,225,0.0,0.0,82,0.00,,,0.00,WUHU216HW,2013-05-20 09:52:00,
2013-05-20 05:57:00,62.2,56.6,30.25,SW,225,0.0,0.0,82,0.00,,,0.00,WUHU216HW,2013-05-20 09:57:00,
2013-05-20 06:02:00,62.0,56.4,30.25,SW,225,0.0,0.0,82,0.00,,,0.00,WUHU216HW,2013-05-20 10:02:00,
2013-05-20 06:07:00,62.0,56.4,30.25,SW,225,0.0,0.0,82,0.00,,,0.00,WUHU216HW,2013-05-20 10:07:00,
2013-05-20 06:12:00,61.8,56.3,30.24,SW,225,0.0,0.0,82,0.00,,,0.00,WUHU216HW,2013-05-20 10:12:00,
2013-05-20 06:17:00,61.8,56.3,30.24,SW,225,0.0,0.0,82,0.00,,,0.00,WUHU216HW,2013-05-20 10:17:00,
2013-05-20 06:22:00,61.8,56.6,30.24,SW,225,0.0,0.0,83,0.00,,,0.00,WUHU216HW,2013-05-20 10:22:00,
2013-05-20 06:27:00,61.8,56.6,30.24,SW,225,0.0,0.0,83,0.00,,,0.00,WUHU216HW,2013-05-20 10:27:00,
2013-05-20 06:32:00,61.8,56.6,30.24,SW,225,0.0,0.0,83,0.00,,,0.00,WUHU216HW,2013-05-20 10:32:00,
2013-05-20 06:37:00,61.8,56.9,30.25,SW,225,0.0,0.0,84,0.00,,,0.00,WUHU216HW,2013-05-20 10:37:00,
2013-05-20 06:42:00,62.0,57.4,30.25,SW,225,0.0,0.0,85,0.00,,,0.00,WUHU216HW,2013-05-20 10:42:00,
2013-05-20 06:47:00,62.2,57.6,30.25,SW,225,0.0,0.0,85,0.00,,,0.00,WUHU216HW,2013-05-20 10:47:00,
2013-05-20 06:52:00,62.2,57.6,30.24,SW,225,0.0,0.0,85,0.00,,,0.00,WUHU216HW,2013-05-20 10:52:00,
2013-05-20 06:57:00,62.4,57.8,30.24,SW,225,0.0,0.0,85,0.00,,,0.00,WUHU216HW,2013-05-20 10:57:00,
2013-05-20 07:02:00,62.4,57.8,30.24,SW,225,0.0,0.0,85,0.00,,,0.00,WUHU216HW,2013-05-20 11:02:00,
2013-05-20 07:07:00,62.4,57.8,30.24,SW,225,0.0,0.0,85,0.00,,,0.00,WUHU216HW,2013-05-20 11:07:00,
2013-05-20 07:12:00,62.7,58.1,30.24,SW,225,0.0,0.0,85,0.00,,,0.00,WUHU216HW,2013-05-20 11:12:00,
2013-05-20 07:17:00,62.9,58.3,30.22,SW,225,0.0,0.0,85,0.00,,,0.00,WUHU216HW,2013-05-20 11:17:00,
2013-05-20 07:22:00,63.1,58.8,30.22,SSW,203,0.0,0.0,86,0.00,,,0.00,WUHU216HW,2013-05-20 11:22:00,
2013-05-20 07:27:00,63.5,59.2,30.22,SSW,203,0.0,0.0,86,0.00,,,0.00,WUHU216HW,2013-05-20 11:27:00,
2013-05-20 07:32:00,63.8,59.6,30.22,SSW,203,0.0,0.0,86,0.00,,,0.00,WUHU216HW,2013-05-20 11:32:00,
2013-05-20 07:37:00,64.0,59.4,30.23,SSW,203,0.0,0.0,85,0.00,,,0.00,WUHU216HW,2013-05-20 11:37:00,
2013-05-20 07:42:00,64.2,59.6,30.23,SW,225,0.0,0.0,85,0.00,,,0.00,WUHU216HW,2013-05-20 11:42:00,
2013-05-20 07:47:00,64.5,59.9,30.23,SW,225,0.0,0.0,85,0.00,,,0.00,WUHU216HW,2013-05-20 11:47:00,
2013-05-20 07:52:00,64.7,60.1,30.22,SW,225,0.0,0.0,85,0.00,,,0.00,WUHU216HW,2013-05-20 11:52:00,
2013-05-20 07:57:00,65.1,60.4,30.22,SSW,203,0.0,0.0,85,0.00,,,0.00,WUHU216HW,2013-05-20 11:57:00,
2013-05-20 08:02:00,65.3,60.6,30.23,SW,225,0.0,0.0,85,0.00,,,0.00,WUHU216HW,2013-05-20 12:02:00,
2013-05-20 08:07:00,65.6,60.9,30.23,SW,225,0.0,0.0,85,0.00,,,0.00,WUHU216HW,2013-05-20 12:07:00,
2013-05-20 08:12:00,66.0,61.0,30.23,SW,225,0.0,0.0,84,0.00,,,0.00,WUHU216HW,2013-05-20 12:12:00,
2013-05-20 08:17:00,66.5,61.5,30.24,SE,135,0.0,0.0,84,0.00,,,0.00,WUHU216HW,2013-05-20 12:17:00,
2013-05-20 08:22:00,66.9,61.9,30.24,SE,135,0.0,0.0,84,0.00,,,0.00,WUHU216HW,2013-05-20 12:22:00,
2013-05-20 08:27:00,67.2,62.1,30.24,NE,45,0.0,0.0,84,0.00,,,0.00,WUHU216HW,2013-05-20 12:27:00,
2013-05-20 08:32:00,67.8,62.4,30.24,SE,135,0.0,0.0,83,0.00,,,0.00,WUHU216HW,2013-05-20 12:32:00,
2013-05-20 08:37:00,67.8,62.4,30.25,NE,45,0.0,0.0,83,0.00,,,0.00,WUHU216HW,2013-05-20 12:37:00,
2013-05-20 08:42:00,68.3,62.6,30.26,North,0,0.0,0.0,82,0.00,,,0.00,WUHU216HW,2013-05-20 12:42:00,
2013-05-20 08:47:00,68.5,62.5,30.25,North,0,0.0,0.0,81,0.00,,,0.00,WUHU216HW,2013-05-20 12:47:00,
2013-05-20 08:52:00,68.7,62.6,30.26,West,270,0.0,0.0,81,0.00,,,0.00,WUHU216HW,2013-05-20 12:52:00,
2013-05-20 08:57:00,68.9,62.8,30.25,West,270,0.0,0.0,81,0.00,,,0.00,WUHU216HW,2013-05-20 12:57:00,
2013-05-20 09:02:00,69.0,62.6,30.25,West,270,0.0,0.0,80,0.00,,,0.00,WUHU216HW,2013-05-20 13:02:00,
2013-05-20 09:07:00,69.0,62.6,30.24,West,270,0.0,0.0,80,0.00,,,0.00,WUHU216HW,2013-05-20 13:07:00,
2013-05-20 09:12:00,68.9,62.5,30.24,West,270,0.0,0.0,80,0.00,,,0.00,WUHU216HW,2013-05-20 13:12:00,
2013-05-20 09:17:00,68.9,62.8,30.25,West,270,0.0,0.0,81,0.00,,,0.00,WUHU216HW,2013-05-20 13:17:00,
2013-05-20 09:22:00,68.9,62.8,30.25,West,270,0.0,0.0,81,0.00,,,0.00,WUHU216HW,2013-05-20 13:22:00,
2013-05-20 09:27:00,69.4,63.3,30.25,West,270,0.0,0.0,81,0.00,,,0.00,WUHU216HW,2013-05-20 13:27:00,
2013-05-20 09:32:00,69.6,63.4,30.24,South,180,0.0,0.0,81,0.00,,,0.00,WUHU216HW,2013-05-20 13:32:00,
2013-05-20 09:37:00,69.9,63.8,30.24,NNW,338,0.0,0.0,81,0.00,,,0.00,WUHU216HW,2013-05-20 13:37:00,
2013-05-20 09:42:00,70.7,64.2,30.24,East,90,0.0,0.0,80,0.00,,,0.00,WUHU216HW,2013-05-20 13:42:00,
2013-05-20 09:47:00,71.2,64.3,30.24,East,90,0.0,0.0,79,0.00,,,0.00,WUHU216HW,2013-05-20 13:47:00,
2013-05-20 09:52:00,71.4,64.1,30.24,SW,225,0.0,0.0,78,0.00,,,0.00,WUHU216HW,2013-05-20 13:52:00,
2013-05-20 09:57:00,72.3,64.7,30.24,SSE,158,0.0,0.0,77,0.00,,,0.00,WUHU216HW,2013-05-20 13:57:00,
2013-05-20 10:02:00,72.6,65.0,30.24,SSW,203,0.0,0.0,77,0.00,,,0.00,WUHU216HW,2013-05-20 14:02:00,
2013-05-20 10:07:00,73.2,65.2,30.24,SSE,158,0.0,0.0,76,0.00,,,0.00,WUHU216HW,2013-05-20 14:07:00,
2013-05-20 10:12:00,73.5,65.1,30.24,SSW,203,0.0,0.0,75,0.00,,,0.00,WUHU216HW,2013-05-20 14:12:00,
2013-05-20 10:17:00,73.7,65.3,30.23,SSW,203,0.0,0.0,75,0.00,,,0.00,WUHU216HW,2013-05-20 14:17:00,
2013-05-20 10:22:00,74.3,65.8,30.23,SSW,203,0.0,0.0,75,0.00,,,0.00,WUHU216HW,2013-05-20 14:22:00,
2013-05-20 10:27:00,74.8,66.3,30.23,South,180,0.0,0.0,75,0.00,,,0.00,WUHU216HW,2013-05-20 14:27:00,
2013-05-20 10:32:00,75.0,66.1,30.24,SW,225,0.0,0.0,74,0.00,,,0.00,WUHU216HW,2013-05-20 14:32:00,
2013-05-20 10:37:00,75.9,66.6,30.24,West,270,0.0,0.0,73,0.00,,,0.00,WUHU216HW,2013-05-20 14:37:00,
2013-05-20 10:42:00,76.4,67.1,30.23,WSW,248,0.0,0.0,73,0.00,,,0.00,WUHU216HW,2013-05-20 14:42:00,
2013-05-20 10:47:00,76.8,67.1,30.23,WSW,248,0.0,0.0,72,0.00,,,0.00,WUHU216HW,2013-05-20 14:47:00,
2013-05-20 10:52:00,77.5,67.8,30.23,SSW,203,0.0,0.0,72,0.00,,,0.00,WUHU216HW,2013-05-20 14:52:00,
2013-05-20 10:57:00,78.0,67.9,30.23,NW,315,0.0,0.0,71,0.00,,,0.00,WUHU216HW,2013-05-20 14:57:00,
2013-05-20 11:02:00,78.4,68.2,30.23,WSW,248,0.0,0.0,71,0.00,,,0.00,WUHU216HW,2013-05-20 15:02:00,
2013-05-20 11:07:00,78.8,68.1,30.23,South,180,0.0,0.8,70,0.00,,,0.00,WUHU216HW,2013-05-20 15:07:00,
2013-05-20 11:12:00,78.9,67.9,30.23,SE,135,0.0,0.8,69,0.00,,,0.00,WUHU216HW,2013-05-20 15:12:00,
2013-05-20 11:17:00,79.1,67.6,30.23,SW,225,2.4,2.4,68,0.00,,,0.00,WUHU216HW,2013-05-20 15:17:00,
2013-05-20 11:22:00,79.3,68.2,30.23,WSW,248,2.0,3.1,69,0.00,,,0.00,WUHU216HW,2013-05-20 15:22:00,
2013-05-20 11:27:00,79.3,68.2,30.22,WSW,248,0.0,4.6,69,0.00,,,0.00,WUHU216HW,2013-05-20 15:27:00,
2013-05-20 11:32:00,79.5,68.4,30.22,WSW,248,0.0,4.6,69,0.00,,,0.00,WUHU216HW,2013-05-20 15:32:00,
2013-05-20 11:37:00,79.8,68.3,30.22,SSW,203,0.0,0.0,68,0.00,,,0.00,WUHU216HW,2013-05-20 15:37:00,
2013-05-20 11:42:00,80.0,68.0,30.21,South,180,0.0,0.0,67,0.00,,,0.00,WUHU216HW,2013-05-20 15:42:00,
2013-05-20 11:47:00,80.2,68.2,30.21,South,180,0.0,0.0,67,0.00,,,0.00,WUHU216HW,2013-05-20 15:47:00,
2013-05-20 11:52:00,80.4,68.4,30.21,SW,225,0.0,0.0,67,0.00,,,0.00,WUHU216HW,2013-05-20 15:52:00,
2013-05-20 11:57:00,80.9,69.4,30.21,WSW,248,0.0,1.7,68,0.00,,,0.00,WUHU216HW,2013-05-20 15:57:00,
2013-05-20 12:02:00,81.5,69.4,30.20,East,90,0.0,1.7,67,0.00,,,0.00,WUHU216HW,2013-05-20 16:02:00,
2013-05-20 12:07:00,82.0,69.4,30.20,WSW,248,0.0,0.0,66,0.00,,,0.00,WUHU216HW,2013-05-20 16:07:00,
2013-05-20 12:12:00,83.1,69.6,30.20,East,90,0.0,2.4,64,0.00,,,0.00,WUHU216HW,2013-05-20 16:12:00,
2013-05-20 12:17:00,83.4,69.9,30.20,WSW,248,0.0,2.4,64,0.00,,,0.00,WUHU216HW,2013-05-20 16:17:00,
2013-05-20 12:22:00,84.3,70.4,30.20,SW,225,0.0,0.0,63,0.00,,,0.00,WUHU216HW,2013-05-20 16:22:00,
2013-05-20 12:27:00,85.2,69.8,30.20,SSE,158,0.0,2.4,60,0.00,,,0.00,WUHU216HW,2013-05-20 16:27:00,
2013-05-20 12:32:00,85.8,70.3,30.20,West,270,0.0,2.4,60,0.00,,,0.00,WUHU216HW,2013-05-20 16:32:00,
2013-05-20 12:37:00,86.3,69.8,30.20,WSW,248,0.0,0.0,58,0.00,,,0.00,WUHU216HW,2013-05-20 16:37:00,
2013-05-20 12:42:00,86.5,70.5,30.19,SW,225,0.0,0.0,59,0.00,,,0.00,WUHU216HW,2013-05-20 16:42:00,
2013-05-20 12:47:00,86.5,69.9,30.19,West,270,0.0,0.0,58,0.00,,,0.00,WUHU216HW,2013-05-20 16:47:00,
2013-05-20 12:52:00,86.9,70.3,30.19,South,180,0.0,0.0,58,0.00,,,0.00,WUHU216HW,2013-05-20 16:52:00,
2013-05-20 12:57:00,87.0,69.9,30.18,WNW,293,0.0,0.0,57,0.00,,,0.00,WUHU216HW,2013-05-20 16:57:00,
2013-05-20 13:02:00,86.7,69.6,30.19,WSW,248,0.0,0.2,57,0.00,,,0.00,WUHU216HW,2013-05-20 17:02:00,
2013-05-20 13:07:00,86.5,69.4,30.19,SW,225,0.6,1.1,57,0.00,,,0.00,WUHU216HW,2013-05-20 17:07:00,
2013-05-20 13:12:00,86.3,69.8,30.19,WSW,248,0.0,1.5,58,0.00,,,0.00,WUHU216HW,2013-05-20 17:12:00,
2013-05-20 13:17:00,86.5,69.4,30.19,SSW,203,0.0,1.5,57,0.00,,,0.00,WUHU216HW,2013-05-20 17:17:00,
2013-05-20 13:22:00,86.7,69.1,30.18,SW,225,0.0,0.0,56,0.00,,,0.00,WUHU216HW,2013-05-20 17:22:00,
2013-05-20 13:27:00,87.2,69.6,30.18,SW,225,0.0,0.0,56,0.00,,,0.00,WUHU216HW,2013-05-20 17:27:00,
2013-05-20 13:32:00,87.6,69.4,30.18,South,180,0.0,0.0,55,0.00,,,0.00,WUHU216HW,2013-05-20 17:32:00,
2013-05-20 13:37:00,88.1,69.4,30.18,East,90,0.0,0.0,54,0.00,,,0.00,WUHU216HW,2013-05-20 17:37:00,
2013-05-20 13:42:00,88.3,69.5,30.17,SW,225,0.0,0.0,54,0.00,,,0.00,WUHU216HW,2013-05-20 17:42:00,
2013-05-20 13:47:00,88.5,69.1,30.17,SSW,203,0.0,0.6,53,0.00,,,0.00,WUHU216HW,2013-05-20 17:47:00,
2013-05-20 13:52:00,88.8,69.5,30.17,WSW,248,0.0,3.5,53,0.00,,,0.00,WUHU216HW,2013-05-20 17:52:00,
2013-05-20 13:57:00,89.4,70.5,30.17,West,270,0.6,3.5,54,0.00,,,0.00,WUHU216HW,2013-05-20 17:57:00,
2013-05-20 14:02:00,89.2,69.2,30.17,WSW,248,0.0,3.3,52,0.00,,,0.00,WUHU216HW,2013-05-20 18:02:00,
2013-05-20 14:07:00,88.8,68.9,30.16,NE,45,0.0,2.9,52,0.00,,,0.00,WUHU216HW,2013-05-20 18:07:00,
2013-05-20 14:12:00,88.5,69.1,30.16,SW,225,0.0,0.0,53,0.00,,,0.00,WUHU216HW,2013-05-20 18:12:00,
2013-05-20 14:17:00,88.5,69.1,30.16,SW,225,3.3,3.3,53,0.00,,,0.00,WUHU216HW,2013-05-20 18:17:00,
2013-05-20 14:22:00,88.3,68.4,30.16,SW,225,0.0,3.3,52,0.00,,,0.00,WUHU216HW,2013-05-20 18:22:00,
2013-05-20 14:27:00,88.1,68.3,30.16,SE,135,0.0,0.0,52,0.00,,,0.00,WUHU216HW,2013-05-20 18:27:00,
2013-05-20 14:32:00,87.9,68.1,30.16,SSW,203,0.0,0.0,52,0.00,,,0.00,WUHU216HW,2013-05-20 18:32:00,
2013-05-20 14:37:00,87.9,68.1,30.16,South,180,0.0,6.0,52,0.00,,,0.00,WUHU216HW,2013-05-20 18:37:00,
2013-05-20 14:42:00,87.9,68.1,30.15,SW,225,0.0,6.0,52,0.00,,,0.00,WUHU216HW,2013-05-20 18:42:00,
2013-05-20 14:47:00,88.1,68.3,30.15,SW,225,1.1,4.9,52,0.00,,,0.00,WUHU216HW,2013-05-20 18:47:00,
2013-05-20 14:52:00,88.3,68.4,30.14,SE,135,1.1,1.1,52,0.00,,,0.00,WUHU216HW,2013-05-20 18:52:00,
2013-05-20 14:57:00,88.8,68.9,30.14,WNW,293,0.0,1.3,52,0.00,,,0.00,WUHU216HW,2013-05-20 18:57:00,
2013-05-20 15:02:00,89.2,68.2,30.12,SE,135,0.0,1.3,50,0.00,,,0.00,WUHU216HW,2013-05-20 19:02:00,
2013-05-20 15:07:00,89.4,68.3,30.13,SW,225,0.0,0.0,50,0.00,,,0.00,WUHU216HW,2013-05-20 19:07:00,
2013-05-20 15:12:00,89.4,68.9,30.13,WSW,248,2.9,5.5,51,0.00,,,0.00,WUHU216HW,2013-05-20 19:12:00,
2013-05-20 15:17:00,89.4,68.3,30.12,SSE,158,0.0,5.5,50,0.00,,,0.00,WUHU216HW,2013-05-20 19:17:00,
2013-05-20 15:22:00,89.2,68.2,30.12,WSW,248,0.0,2.9,50,0.00,,,0.00,WUHU216HW,2013-05-20 19:22:00,
2013-05-20 15:27:00,88.5,67.5,30.11,SSW,203,0.0,0.0,50,0.00,,,0.00,WUHU216HW,2013-05-20 19:27:00,
2013-05-20 15:32:00,88.5,68.1,30.11,WSW,248,5.3,5.3,51,0.00,,,0.00,WUHU216HW,2013-05-20 19:32:00,
2013-05-20 15:37:00,88.5,68.1,30.11,WSW,248,2.6,5.3,51,0.00,,,0.00,WUHU216HW,2013-05-20 19:37:00,
2013-05-20 15:42:00,88.1,67.7,30.11,SW,225,5.5,5.5,51,0.00,,,0.00,WUHU216HW,2013-05-20 19:42:00,
2013-05-20 15:47:00,87.8,67.4,30.11,WSW,248,5.3,5.8,51,0.00,,,0.00,WUHU216HW,2013-05-20 19:47:00,
2013-05-20 15:52:00,87.6,67.2,30.11,WSW,248,5.3,6.4,51,0.00,,,0.00,WUHU216HW,2013-05-20 19:52:00,
2013-05-20 15:57:00,87.8,68.0,30.11,WSW,248,3.1,6.4,52,0.00,,,0.00,WUHU216HW,2013-05-20 19:57:00,
2013-05-20 16:02:00,87.8,67.4,30.11,WSW,248,5.3,7.3,51,0.00,,,0.00,WUHU216HW,2013-05-20 20:02:00,
2013-05-20 16:07:00,87.8,67.4,30.11,SW,225,0.0,7.3,51,0.00,,,0.00,WUHU216HW,2013-05-20 20:07:00,
2013-05-20 16:12:00,88.1,67.7,30.11,WSW,248,4.9,4.9,51,0.00,,,0.00,WUHU216HW,2013-05-20 20:12:00,
2013-05-20 16:17:00,88.1,67.7,30.11,WSW,248,7.8,7.8,51,0.00,,,0.00,WUHU216HW,2013-05-20 20:17:00,
2013-05-20 16:22:00,87.6,67.2,30.16,SW,225,10.2,10.2,51,0.00,,,0.00,WUHU216HW,2013-05-20 20:22:00,
2013-05-20 16:27:00,84.7,64.6,30.16,WSW,248,6.2,10.2,51,0.00,,,0.00,WUHU216HW,2013-05-20 20:27:00,
2013-05-20 16:32:00,82.2,62.7,30.19,WSW,248,8.2,10.0,52,0.00,,,0.00,WUHU216HW,2013-05-20 20:32:00,
2013-05-20 16:37:00,79.7,62.0,30.20,SW,225,6.7,8.2,55,0.00,,,0.00,WUHU216HW,2013-05-20 20:37:00,
2013-05-20 16:42:00,76.2,60.9,30.18,West,270,2.2,10.9,59,0.00,,,0.00,WUHU216HW,2013-05-20 20:42:00,
2013-05-20 16:47:00,74.1,60.2,30.17,SSW,203,6.7,10.9,62,0.00,,,0.00,WUHU216HW,2013-05-20 20:47:00,
2013-05-20 16:52:00,72.6,59.7,30.16,SW,225,2.4,6.7,64,0.00,,,0.00,WUHU216HW,2013-05-20 20:52:00,
2013-05-20 16:57:00,71.2,60.1,30.18,SW,225,14.3,14.3,68,0.00,,,0.00,WUHU216HW,2013-05-20 20:57:00,
2013-05-20 17:02:00,70.3,60.4,30.18,SW,225,6.9,14.3,71,0.00,,,0.00,WUHU216HW,2013-05-20 21:02:00,
2013-05-20 17:07:00,69.6,60.1,30.18,SW,225,3.3,14.3,72,0.00,,,0.00,WUHU216HW,2013-05-20 21:07:00,
2013-05-20 17:12:00,68.9,60.2,30.17,WSW,248,3.1,3.3,74,0.00,,,0.00,WUHU216HW,2013-05-20 21:12:00,
2013-05-20 17:17:00,68.5,60.2,30.18,WSW,248,4.4,5.3,75,0.00,,,0.00,WUHU216HW,2013-05-20 21:17:00,
2013-05-20 17:22:00,68.1,60.3,30.17,WSW,248,6.7,6.9,76,0.00,,,0.00,WUHU216HW,2013-05-20 21:22:00,
2013-05-20 17:27:00,67.8,60.3,30.18,SW,225,0.0,6.9,77,0.00,,,0.00,WUHU216HW,2013-05-20 21:27:00,
2013-05-20 17:33:00,67.6,60.5,30.18,SSW,203,0.0,4.4,78,0.00,,,0.00,WUHU216HW,2013-05-20 21:33:00,
2013-05-20 17:38:00,67.6,60.9,30.18,SSW,203,0.0,0.0,79,0.00,,,0.00,WUHU216HW,2013-05-20 21:38:00,
2013-05-20 17:43:00,67.2,60.6,30.17,SSW,203,0.0,0.0,79,0.00,,,0.00,WUHU216HW,2013-05-20 21:43:00,
2013-05-20 17:48:00,66.9,60.2,30.16,SSW,203,0.0,0.0,79,0.00,,,0.00,WUHU216HW,2013-05-20 21:48:00,
2013-05-20 17:53:00,66.7,60.0,30.16,SSW,203,0.0,0.0,79,0.00,,,0.00,WUHU216HW,2013-05-20 21:53:00,
2013-05-20 17:58:00,66.5,60.2,30.16,SSW,203,0.0,0.0,80,0.00,,,0.00,WUHU216HW,2013-05-20 21:58:00,
2013-05-20 18:03:00,66.3,60.0,30.16,South,180,0.0,0.0,80,0.00,,,0.00,WUHU216HW,2013-05-20 22:03:00,
2013-05-20 18:08:00,66.5,60.2,30.17,South,180,0.0,0.0,80,0.00,,,0.00,WUHU216HW,2013-05-20 22:08:00,
2013-05-20 18:13:00,66.3,60.0,30.16,SSW,203,0.0,0.0,80,0.00,,,0.00,WUHU216HW,2013-05-20 22:13:00,
2013-05-20 18:18:00,66.3,60.4,30.16,SW,225,0.0,0.0,81,0.00,,,0.00,WUHU216HW,2013-05-20 22:18:00,
2013-05-20 18:23:00,66.3,60.4,30.16,SW,225,0.8,0.8,81,0.00,,,0.00,WUHU216HW,2013-05-20 22:23:00,
2013-05-20 18:28:00,66.3,60.4,30.16,SW,225,0.0,0.8,81,0.00,,,0.00,WUHU216HW,2013-05-20 22:28:00,
2013-05-20 18:33:00,66.3,60.7,30.16,SW,225,0.0,0.0,82,0.00,,,0.00,WUHU216HW,2013-05-20 22:33:00,
2013-05-20 18:38:00,66.3,60.7,30.16,SW,225,0.0,0.0,82,0.00,,,0.00,WUHU216HW,2013-05-20 22:38:00,
2013-05-20 18:43:00,66.3,60.7,30.15,SW,225,0.0,0.0,82,0.00,,,0.00,WUHU216HW,2013-05-20 22:43:00,
2013-05-20 18:48:00,66.3,60.7,30.14,SW,225,0.0,0.0,82,0.00,,,0.00,WUHU216HW,2013-05-20 22:48:00,
2013-05-20 18:53:00,66.3,60.7,30.16,SW,225,0.0,0.0,82,0.00,,,0.00,WUHU216HW,2013-05-20 22:53:00,
2013-05-20 18:58:00,66.3,61.0,30.16,SW,225,0.0,0.0,83,0.00,,,0.00,WUHU216HW,2013-05-20 22:58:00,
2013-05-20 19:03:00,66.2,60.8,30.16,SW,225,0.0,0.0,83,0.00,,,0.00,WUHU216HW,2013-05-20 23:03:00,
2013-05-20 19:08:00,66.0,61.0,30.15,SW,225,0.0,0.0,84,0.00,,,0.00,WUHU216HW,2013-05-20 23:08:00,
2013-05-20 19:13:00,66.0,61.0,30.16,SW,225,0.0,0.0,84,0.00,,,0.00,WUHU216HW,2013-05-20 23:13:00,
2013-05-20 19:18:00,66.0,61.0,30.16,SW,225,0.0,0.0,84,0.00,,,0.00,WUHU216HW,2013-05-20 23:18:00,
2013-05-20 19:23:00,66.0,61.0,30.15,SW,225,0.0,0.0,84,0.00,,,0.00,WUHU216HW,2013-05-20 23:23:00,
2013-05-20 19:28:00,66.0,61.0,30.16,SW,225,0.0,0.0,84,0.00,,,0.00,WUHU216HW,2013-05-20 23:28:00,
2013-05-20 19:33:00,66.0,61.0,30.16,SW,225,0.0,0.0,84,0.00,,,0.00,WUHU216HW,2013-05-20 23:33:00,
2013-05-20 19:38:00,66.0,61.0,30.16,SW,225,0.0,0.0,84,0.00,,,0.00,WUHU216HW,2013-05-20 23:38:00,
2013-05-20 19:43:00,66.0,61.0,30.16,ENE,68,0.0,0.0,84,0.00,,,0.00,WUHU216HW,2013-05-20 23:43:00,
2013-05-20 19:48:00,65.8,60.8,30.16,ENE,68,0.0,0.0,84,0.00,,,0.00,WUHU216HW,2013-05-20 23:48:00,
2013-05-20 19:53:00,65.8,60.8,30.16,ENE,68,0.0,0.0,84,0.00,,,0.00,WUHU216HW,2013-05-20 23:53:00,
2013-05-20 19:58:00,65.6,60.6,30.15,ENE,68,0.0,0.0,84,0.00,,,0.00,WUHU216HW,2013-05-20 23:58:00,
2013-05-20 20:03:00,65.6,60.6,30.15,ENE,68,0.0,0.0,84,0.00,,,0.00,WUHU216HW,2013-05-21 00:03:00,
2013-05-20 20:08:00,65.6,60.9,30.15,ENE,68,0.0,0.0,85,0.00,,,0.00,WUHU216HW,2013-05-21 00:08:00,
2013-05-20 20:13:00,65.6,60.9,30.16,ENE,68,0.0,0.0,85,0.00,,,0.00,WUHU216HW,2013-05-21 00:13:00,
2013-05-20 20:18:00,65.6,60.9,30.15,ENE,68,0.0,0.0,85,0.00,,,0.00,WUHU216HW,2013-05-21 00:18:00,
2013-05-20 20:23:00,65.4,60.8,30.15,ENE,68,0.0,0.0,85,0.00,,,0.00,WUHU216HW,2013-05-21 00:23:00,
2013-05-20 20:28:00,65.4,60.8,30.15,ENE,68,0.0,0.0,85,0.00,,,0.00,WUHU216HW,2013-05-21 00:28:00,
2013-05-20 20:33:00,65.6,60.9,30.15,ENE,68,0.0,0.0,85,0.00,,,0.00,WUHU216HW,2013-05-21 00:33:00,
2013-05-20 20:38:00,65.6,60.9,30.14,ENE,68,0.0,0.0,85,0.00,,,0.00,WUHU216HW,2013-05-21 00:38:00,
2013-05-20 20:43:00,65.6,60.9,30.13,ENE,68,0.0,0.0,85,0.00,,,0.00,WUHU216HW,2013-05-21 00:43:00,
2013-05-20 20:48:00,65.8,61.1,30.13,ENE,68,0.0,0.0,85,0.00,,,0.00,WUHU216HW,2013-05-21 00:48:00,
2013-05-20 20:53:00,65.8,61.1,30.13,ENE,68,0.0,0.0,85,0.00,,,0.00,WUHU216HW,2013-05-21 00:53:00,
2013-05-20 20:58:00,65.4,60.8,30.14,ENE,68,0.0,0.0,85,0.00,,,0.00,WUHU216HW,2013-05-21 00:58:00,
2013-05-20 21:03:00,65.4,60.8,30.14,ENE,68,0.0,0.0,85,0.00,,,0.00,WUHU216HW,2013-05-21 01:03:00,
2013-05-20 21:08:00,65.4,60.8,30.14,ENE,68,0.0,0.0,85,0.00,,,0.00,WUHU216HW,2013-05-21 01:08:00,
2013-05-20 21:13:00,65.3,60.6,30.14,ENE,68,0.0,0.0,85,0.00,,,0.00,WUHU216HW,2013-05-21 01:13:00,
2013-05-20 21:18:00,65.3,60.6,30.15,ENE,68,0.0,0.0,85,0.00,,,0.00,WUHU216HW,2013-05-21 01:18:00,
2013-05-20 21:23:00,65.1,60.4,30.15,ENE,68,0.0,0.0,85,0.00,,,0.00,WUHU216HW,2013-05-21 01:23:00,
2013-05-20 21:28:00,65.1,60.8,30.16,ENE,68,0.0,0.0,86,0.00,,,0.00,WUHU216HW,2013-05-21 01:28:00,
2013-05-20 21:33:00,65.1,60.8,30.16,ENE,68,0.0,0.0,86,0.00,,,0.00,WUHU216HW,2013-05-21 01:33:00,
2013-05-20 21:38:00,64.9,60.6,30.16,ENE,68,0.0,0.0,86,0.00,,,0.00,WUHU216HW,2013-05-21 01:38:00,
2013-05-20 21:43:00,64.9,60.6,30.16,ENE,68,0.0,0.0,86,0.00,,,0.00,WUHU216HW,2013-05-21 01:43:00,
2013-05-20 21:48:00,64.7,60.4,30.16,ENE,68,0.0,0.0,86,0.00,,,0.00,WUHU216HW,2013-05-21 01:48:00,
2013-05-20 21:53:00,64.7,60.8,30.16,ENE,68,0.0,0.0,87,0.00,,,0.00,WUHU216HW,2013-05-21 01:53:00,
2013-05-20 21:58:00,64.7,60.8,30.16,ENE,68,0.0,0.0,87,0.00,,,0.00,WUHU216HW,2013-05-21 01:58:00,
2013-05-20 22:03:00,64.5,60.6,30.16,ENE,68,0.0,0.0,87,0.00,,,0.00,WUHU216HW,2013-05-21 02:03:00,
2013-05-20 22:08:00,64.5,60.6,30.17,ENE,68,0.0,0.0,87,0.00,,,0.00,WUHU216HW,2013-05-21 02:08:00,
2013-05-20 22:13:00,64.4,60.1,30.17,ENE,68,0.0,0.0,86,0.00,,,0.00,WUHU216HW,2013-05-21 02:13:00,
2013-05-20 22:18:00,64.2,59.9,30.17,ENE,68,0.0,0.0,86,0.00,,,0.00,WUHU216HW,2013-05-21 02:18:00,
2013-05-20 22:23:00,64.2,59.9,30.17,ENE,68,0.0,0.0,86,0.00,,,0.00,WUHU216HW,2013-05-21 02:23:00,
2013-05-20 22:28:00,64.2,59.9,30.17,ENE,68,0.0,0.0,86,0.00,,,0.00,WUHU216HW,2013-05-21 02:28:00,
2013-05-20 22:33:00,64.0,59.7,30.17,ENE,68,0.0,0.0,86,0.00,,,0.00,WUHU216HW,2013-05-21 02:33:00,
2013-05-20 22:38:00,63.8,59.6,30.17,ENE,68,0.0,0.0,86,0.00,,,0.00,WUHU216HW,2013-05-21 02:38:00,
2013-05-20 22:43:00,63.6,59.4,30.17,ENE,68,0.0,0.0,86,0.00,,,0.00,WUHU216HW,2013-05-21 02:43:00,
2013-05-20 22:48:00,63.6,59.4,30.17,ENE,68,0.0,0.0,86,0.00,,,0.00,WUHU216HW,2013-05-21 02:48:00,
2013-05-20 22:53:00,63.5,59.2,30.17,ENE,68,0.0,0.0,86,0.00,,,0.00,WUHU216HW,2013-05-21 02:53:00,
2013-05-20 22:58:00,63.5,59.2,30.17,ENE,68,0.0,0.0,86,0.00,,,0.00,WUHU216HW,2013-05-21 02:58:00,
2013-05-20 23:03:00,63.5,59.2,30.17,ENE,68,0.0,0.0,86,0.00,,,0.00,WUHU216HW,2013-05-21 03:03:00,
2013-05-20 23:08:00,63.3,59.0,30.16,ENE,68,0.0,0.0,86,0.00,,,0.00,WUHU216HW,2013-05-21 03:08:00,
2013-05-20 23:13:00,63.3,59.0,30.16,ENE,68,0.0,0.0,86,0.00,,,0.00,WUHU216HW,2013-05-21 03:13:00,
2013-05-20 23:18:00,63.1,58.8,30.16,ENE,68,0.0,0.0,86,0.00,,,0.00,WUHU216HW,2013-05-21 03:18:00,
2013-05-20 23:23:00,63.1,58.8,30.16,ENE,68,0.0,0.0,86,0.00,,,0.00,WUHU216HW,2013-05-21 03:23:00,
2013-05-20 23:28:00,63.1,58.8,30.16,ENE,68,0.0,0.0,86,0.00,,,0.00,WUHU216HW,2013-05-21 03:28:00,
2013-05-20 23:33:00,63.1,58.8,30.16,ENE,68,0.0,0.0,86,0.00,,,0.00,WUHU216HW,2013-05-21 03:33:00,
2013-05-20 23:38:00,62.9,58.7,30.16,ENE,68,0.0,0.0,86,0.00,,,0.00,WUHU216HW,2013-05-21 03:38:00,
2013-05-20 23:43:00,62.9,58.7,30.16,ENE,68,0.0,0.0,86,0.00,,,0.00,WUHU216HW,2013-05-21 03:43:00,
2013-05-20 23:48:00,62.7,58.5,30.16,ENE,68,0.0,0.0,86,0.00,,,0.00,WUHU216HW,2013-05-21 03:48:00,
2013-05-20 23:53:00,62.7,58.5,30.16,ENE,68,0.0,0.0,86,0.00,,,0.00,WUHU216HW,2013-05-21 03:53:00,
2013-05-20 23:58:00,62.6,58.3,30.16,ENE,68,0.0,0.0,86,0.00,,,0.00,WUHU216HW,2013-05-21 03:58:00,